Location: Unspecified
(0.0000°N, 0.0000°E)
Time: 12:44:45
(UTC-01:00)

N. Korean satellite - Visible Passes

Search period start: 17 July 2018 00:00
Search period end: 27 July 2018 00:00
Orbit: 459 x 511 km, 97.2° (Epoch: 16 July)

Date Brightness Start Highest point End Pass type
(mag) Time Alt. Az. Time Alt. Az. Time Alt. Az.
19 Jul 8.8 04:38:36 10° NE 04:41:33 26° E 04:44:28 10° SSE visible
19 Jul 9.8 18:01:09 10° SW 18:02:40 12° W 18:04:09 10° WNW visible
20 Jul 9.9 04:16:43 10° E 04:17:26 11° E 04:18:10 10° ESE visible
20 Jul 8.8 17:35:20 10° SSW 17:38:34 28° W 17:41:49 10° NW visible
23 Jul 9.0 04:35:31 10° NE 04:38:19 23° E 04:41:06 10° SSE visible
23 Jul 9.7 17:57:34 10° SW 17:59:28 14° W 18:01:22 10° WNW visible
24 Jul 8.6 17:32:01 10° SSW 17:35:22 32° W 17:38:44 10° NW visible
